,,,PA_Meas_PMT16A,,PR_Meas_QMR101_102,,RH_Meas_QMH101,,SR_Meas_QMS101,,TA_Meas_QMH101,,GenWind,,GenWind,
date,time,status,PA,status,PR,status,RH,status,SR,status,TA,status,DirAvg,status,SpdAvg,
2009-07-25, 00:00:04,VALID,1011.77,VALID,0,VALID,91.7607,VALID,0,VALID,24.3566,VALID,26,VALID,0.0972656,
2009-07-25, 00:01:04,VALID,1011.77,VALID,0,VALID,91.7531,VALID,0,VALID,24.2963,VALID,26,VALID,0.351953,
2009-07-25, 00:02:04,VALID,1011.77,VALID,0,VALID,91.7531,VALID,0,VALID,24.2963,VALID,26,VALID,0.221484,
2009-07-25, 00:03:04,VALID,1011.78,VALID,0,VALID,91.7683,VALID,0,VALID,24.2573,VALID,26,VALID,0.0597656,
2009-07-25, 00:04:04,VALID,1011.76,VALID,0,VALID,91.7759,VALID,0,VALID,24.2573,VALID,26,VALID,0,
2009-07-25, 00:05:04,VALID,1011.78,VALID,0,VALID,91.8141,VALID,0,VALID,24.2378,VALID,26,VALID,0.251953,
2009-07-25, 00:06:04,VALID,1011.78,VALID,0,VALID,91.8675,VALID,0,VALID,24.2378,VALID,26,VALID,0.115625,
2009-07-25, 00:07:04,VALID,1011.77,VALID,0,VALID,91.9208,VALID,0,VALID,24.2591,VALID,26,VALID,0,
2009-07-25, 00:08:04,VALID,1011.77,VALID,0,VALID,91.959,VALID,0,VALID,24.2591,VALID,26,VALID,0,
2009-07-25, 00:09:04,VALID,1011.78,VALID,0,VALID,91.9971,VALID,0,VALID,24.2573,VALID,26,VALID,0,
2009-07-25, 00:10:04,VALID,1011.82,VALID,0,VALID,92.0276,VALID,0,VALID,24.2786,VALID,26,VALID,0,
2009-07-25, 00:11:04,VALID,1011.82,VALID,0,VALID,92.0428,VALID,0,VALID,24.2573,VALID,26,VALID,0,
2009-07-25, 00:12:04,VALID,1011.82,VALID,0,VALID,92.0581,VALID,0,VALID,24.2573,VALID,26,VALID,0,
2009-07-25, 00:13:04,VALID,1011.8,VALID,0,VALID,92.0733,VALID,0,VALID,24.2768,VALID,26,VALID,0,
2009-07-25, 00:14:04,VALID,1011.8,VALID,0,VALID,92.0886,VALID,0,VALID,24.2768,VALID,26,VALID,0,
2009-07-25, 00:15:04,VALID,1011.79,VALID,0,VALID,92.0962,VALID,0,VALID,24.2981,VALID,26,VALID,0,
2009-07-25, 00:16:04,VALID,1011.76,VALID,0,VALID,92.0886,VALID,0,VALID,24.2963,VALID,26,VALID,0,
2009-07-25, 00:17:04,VALID,1011.73,VALID,0,VALID,92.0886,VALID,0,VALID,24.2963,VALID,26,VALID,0,
2009-07-25, 00:18:04,VALID,1011.74,VALID,0,VALID,92.0886,VALID,0,VALID,24.3176,VALID,26,VALID,0,
2009-07-25, 00:19:04,VALID,1011.72,VALID,0,VALID,92.1115,VALID,0,VALID,24.3158,VALID,26,VALID,0,
2009-07-25, 00:20:04,VALID,1011.73,VALID,0,VALID,92.142,VALID,0,VALID,24.3158,VALID,26,VALID,0,
2009-07-25, 00:21:04,VALID,1011.72,VALID,0,VALID,92.1267,VALID,0,VALID,24.3352,VALID,26,VALID,0,
2009-07-25, 00:22:04,VALID,1011.7,VALID,0,VALID,92.1039,VALID,0,VALID,24.3371,VALID,26,VALID,0,
2009-07-25, 00:23:04,VALID,1011.68,VALID,0,VALID,92.1267,VALID,0,VALID,24.3566,VALID,26,VALID,0,
2009-07-25, 00:24:04,VALID,1011.63,VALID,0,VALID,92.1344,VALID,0,VALID,24.3742,VALID,26,VALID,0,
2009-07-25, 00:25:04,VALID,1011.64,VALID,0,VALID,92.1496,VALID,0,VALID,24.3742,VALID,26,VALID,0,
2009-07-25, 00:26:04,VALID,1011.59,VALID,0,VALID,92.1496,VALID,0,VALID,24.415,VALID,26,VALID,0,
2009-07-25, 00:27:04,VALID,1011.57,VALID,0,VALID,92.1344,VALID,0,VALID,24.4327,VALID,64,VALID,0,
2009-07-25, 00:28:04,VALID,1011.53,VALID,0,VALID,92.1267,VALID,0.105969,VALID,24.4327,VALID,65,VALID,0,
2009-07-25, 00:29:04,VALID,1011.57,VALID,0,VALID,92.0733,VALID,0,VALID,24.4735,VALID,65,VALID,0,
2009-07-25, 00:30:04,VALID,1011.56,VALID,0,VALID,92.0276,VALID,0,VALID,24.4522,VALID,48,VALID,0.4375,
2009-07-25, 00:31:04,VALID,1011.55,VALID,0,VALID,91.9361,VALID,0.105969,VALID,24.4911,VALID,39,VALID,0.399609,
2009-07-25, 00:32:04,VALID,1011.53,VALID,0,VALID,91.8598,VALID,0,VALID,24.532,VALID,64,VALID,0.658203,
2009-07-25, 00:33:04,VALID,1011.54,VALID,0,VALID,91.7607,VALID,0,VALID,24.5515,VALID,52,VALID,0.498437,
2009-07-25, 00:34:04,VALID,1011.53,VALID,0,VALID,91.6539,VALID,0,VALID,24.5496,VALID,66,VALID,0.766797,
2009-07-25, 00:35:04,VALID,1011.56,VALID,0,VALID,91.5243,VALID,0,VALID,24.571,VALID,66,VALID,0.360156,
2009-07-25, 00:36:04,VALID,1011.56,VALID,0,VALID,91.4709,VALID,0,VALID,24.5496,VALID,66,VALID,0.290234,
2009-07-25, 00:37:04,VALID,1011.55,VALID,0,VALID,91.4252,VALID,0,VALID,24.5515,VALID,73,VALID,0.405469,
2009-07-25, 00:38:04,VALID,1011.54,VALID,0,VALID,91.4023,VALID,0,VALID,24.5515,VALID,73,VALID,0.436328,
2009-07-25, 00:39:04,VALID,1011.57,VALID,0,VALID,91.4023,VALID,0,VALID,24.5515,VALID,73,VALID,0.39375,
2009-07-25, 00:40:04,VALID,1011.57,VALID,0,VALID,91.4328,VALID,0,VALID,24.5301,VALID,68,VALID,0.0910156,
2009-07-25, 00:41:04,VALID,1011.54,VALID,0,VALID,91.4785,VALID,0,VALID,24.5301,VALID,68,VALID,0.222266,
2009-07-25, 00:42:04,VALID,1011.53,VALID,0,VALID,91.5167,VALID,0,VALID,24.5301,VALID,68,VALID,0.299609,
2009-07-25, 00:43:04,VALID,1011.53,VALID,0,VALID,91.5243,VALID,0,VALID,24.5301,VALID,74,VALID,0.576953,
2009-07-25, 00:44:04,VALID,1011.5,VALID,0,VALID,91.5548,VALID,0,VALID,24.5301,VALID,56,VALID,0.0636719,
2009-07-25, 00:45:04,VALID,1011.48,VALID,0,VALID,91.57,VALID,0,VALID,24.5106,VALID,56,VALID,0.166797,
2009-07-25, 00:46:04,VALID,1011.44,VALID,0,VALID,91.6311,VALID,0,VALID,24.532,VALID,45,VALID,0.196875,
2009-07-25, 00:47:04,VALID,1011.45,VALID,0,VALID,91.6616,VALID,0,VALID,24.5106,VALID,45,VALID,0.273828,
2009-07-25, 00:48:04,VALID,1011.46,VALID,0,VALID,91.6539,VALID,0,VALID,24.5125,VALID,45,VALID,0.0742188,
2009-07-25, 00:49:04,VALID,1011.45,VALID,0,VALID,91.6997,VALID,0,VALID,24.4911,VALID,45,VALID,0,
2009-07-25, 00:50:04,VALID,1011.42,VALID,0,VALID,91.7226,VALID,0,VALID,24.5106,VALID,45,VALID,0,
2009-07-25, 00:51:04,VALID,1011.43,VALID,0,VALID,91.7531,VALID,0,VALID,24.5106,VALID,46,VALID,0.192188,
2009-07-25, 00:52:04,VALID,1011.45,VALID,0,VALID,91.7607,VALID,0,VALID,24.4911,VALID,46,VALID,0.323438,
2009-07-25, 00:53:04,VALID,1011.45,VALID,0,VALID,91.7988,VALID,0,VALID,24.532,VALID,68,VALID,0.915625,
2009-07-25, 00:54:04,VALID,1011.42,VALID,0,VALID,91.8141,VALID,0,VALID,24.5125,VALID,73,VALID,0.853125,
2009-07-25, 00:55:04,VALID,1011.43,VALID,0,VALID,91.8675,VALID,0,VALID,24.532,VALID,69,VALID,0.254297,
2009-07-25, 00:56:04,VALID,1011.4,VALID,0,VALID,91.8675,VALID,0,VALID,24.5106,VALID,73,VALID,0.518359,
2009-07-25, 00:57:04,VALID,1011.38,VALID,0,VALID,91.9132,VALID,0,VALID,24.4911,VALID,76,VALID,0.284375,
2009-07-25, 00:58:04,VALID,1011.37,VALID,0,VALID,91.9132,VALID,0,VALID,24.4911,VALID,59,VALID,0.85,
2009-07-25, 00:59:04,VALID,1011.37,VALID,0,VALID,91.9437,VALID,0,VALID,24.4911,VALID,14,VALID,0.354297,
2009-07-25, 01:00:04,VALID,1011.36,VALID,0,VALID,91.9513,VALID,0,VALID,24.5125,VALID,82,VALID,0.460938,
2009-07-25, 01:01:04,VALID,1011.39,VALID,0,VALID,91.9818,VALID,0,VALID,24.5106,VALID,82,VALID,0.425781,
2009-07-25, 01:02:04,VALID,1011.37,VALID,0,VALID,92.0123,VALID,0,VALID,24.4911,VALID,85,VALID,0.710156,
2009-07-25, 01:03:04,VALID,1011.38,VALID,0,VALID,92.0123,VALID,0,VALID,24.5125,VALID,89,VALID,0.746875,
2009-07-25, 01:04:04,VALID,1011.4,VALID,0,VALID,92.0505,VALID,0,VALID,24.5106,VALID,73,VALID,0.898828,
2009-07-25, 01:05:04,VALID,1011.36,VALID,0,VALID,92.0657,VALID,0,VALID,24.5125,VALID,88,VALID,0.838672,
2009-07-25, 01:06:04,VALID,1011.37,VALID,0,VALID,92.0886,VALID,0,VALID,24.4911,VALID,75,VALID,0.753906,
2009-07-25, 01:07:04,VALID,1011.36,VALID,0,VALID,92.1191,VALID,0,VALID,24.493,VALID,86,VALID,0.714453,
2009-07-25, 01:08:04,VALID,1011.37,VALID,0,VALID,92.142,VALID,0,VALID,24.4717,VALID,71,VALID,0.564844,
2009-07-25, 01:09:04,VALID,1011.35,VALID,0,VALID,92.1344,VALID,0,VALID,24.4717,VALID,71,VALID,0.378906,
2009-07-25, 01:10:04,VALID,1011.32,VALID,0,VALID,92.142,VALID,0,VALID,24.4735,VALID,70,VALID,0.400781,
2009-07-25, 01:11:04,VALID,1011.31,VALID,0,VALID,92.1801,VALID,0,VALID,24.4522,VALID,87,VALID,0.541797,
2009-07-25, 01:12:04,VALID,1011.28,VALID,0,VALID,92.2106,VALID,0.105969,VALID,24.4522,VALID,73,VALID,0.273828,
2009-07-25, 01:13:04,VALID,1011.27,VALID,0,VALID,92.203,VALID,0,VALID,24.4522,VALID,73,VALID,0.317969,
2009-07-25, 01:14:04,VALID,1011.21,VALID,0,VALID,92.203,VALID,0,VALID,24.4345,VALID,74,VALID,0.438672,
2009-07-25, 01:15:04,VALID,1011.19,VALID,0,VALID,92.2411,VALID,0,VALID,24.4327,VALID,77,VALID,0.134375,
2009-07-25, 01:16:04,VALID,1011.19,VALID,0,VALID,92.2411,VALID,0,VALID,24.4132,VALID,77,VALID,0.425391,
2009-07-25, 01:17:04,VALID,1011.18,VALID,0,VALID,92.2564,VALID,0,VALID,24.4132,VALID,91,VALID,0.322266,
2009-07-25, 01:18:04,VALID,1011.18,VALID,0,VALID,92.2716,VALID,0,VALID,24.3937,VALID,91,VALID,0.341406,
2009-07-25, 01:19:04,VALID,1011.16,VALID,0,VALID,92.2716,VALID,0.105969,VALID,24.3724,VALID,87,VALID,0.446484,
2009-07-25, 01:20:04,VALID,1011.16,VALID,0,VALID,92.3097,VALID,0,VALID,24.3937,VALID,87,VALID,0.213672,
2009-07-25, 01:21:04,VALID,1011.15,VALID,0,VALID,92.3174,VALID,0,VALID,24.3761,VALID,87,VALID,0.162891,
2009-07-25, 01:22:04,VALID,1011.14,VALID,0,VALID,92.3326,VALID,0,VALID,24.3547,VALID,87,VALID,0.172656,
2009-07-25, 01:23:04,VALID,1011.15,VALID,0,VALID,92.3631,VALID,0,VALID,24.3352,VALID,87,VALID,0.264453,
2009-07-25, 01:24:04,VALID,1011.14,VALID,0,VALID,92.386,VALID,0,VALID,24.3352,VALID,87,VALID,0.0164062,
2009-07-25, 01:25:04,VALID,1011.16,VALID,0,VALID,92.4241,VALID,0,VALID,24.3566,VALID,85,VALID,0.198828,
2009-07-25, 01:26:04,VALID,1011.13,VALID,0,VALID,92.4394,VALID,0,VALID,24.3566,VALID,85,VALID,0,
2009-07-25, 01:27:04,VALID,1011.16,VALID,0,VALID,92.4546,VALID,0,VALID,24.2963,VALID,85,VALID,0.0769531,
2009-07-25, 01:28:04,VALID,1011.15,VALID,0,VALID,92.4623,VALID,0,VALID,24.2963,VALID,85,VALID,0,
2009-07-25, 01:29:04,VALID,1011.12,VALID,0,VALID,92.4775,VALID,0,VALID,24.2963,VALID,85,VALID,0,
2009-07-25, 01:30:04,VALID,1011.1,VALID,0,VALID,92.4928,VALID,0,VALID,24.2768,VALID,85,VALID,0,
2009-07-25, 01:31:04,VALID,1011.05,VALID,0,VALID,92.5004,VALID,0,VALID,24.2768,VALID,85,VALID,0,
2009-07-25, 01:32:04,VALID,1011.06,VALID,0,VALID,92.5233,VALID,0,VALID,24.2768,VALID,61,VALID,0.223828,
2009-07-25, 01:33:04,VALID,1011.05,VALID,0,VALID,92.5538,VALID,0,VALID,24.2768,VALID,46,VALID,0.345313,
2009-07-25, 01:34:04,VALID,1011.02,VALID,0,VALID,92.5919,VALID,0,VALID,24.2786,VALID,46,VALID,0,
2009-07-25, 01:35:04,VALID,1011.02,VALID,0,VALID,92.5995,VALID,0,VALID,24.2591,VALID,46,VALID,0.0609375,
2009-07-25, 01:36:04,VALID,1011.02,VALID,0,VALID,92.5919,VALID,0,VALID,24.2378,VALID,46,VALID,0.0453125,
2009-07-25, 01:37:04,VALID,1010.99,VALID,0,VALID,92.6224,VALID,0,VALID,24.1988,VALID,49,VALID,0.299609,
2009-07-25, 01:38:04,VALID,1010.99,VALID,0,VALID,92.6376,VALID,0,VALID,24.2396,VALID,49,VALID,0.317969,
2009-07-25, 01:39:04,VALID,1010.94,VALID,0,VALID,92.6682,VALID,0,VALID,24.2591,VALID,56,VALID,0.296875,
2009-07-25, 01:40:04,VALID,1010.91,VALID,0,VALID,92.6987,VALID,0,VALID,24.2183,VALID,56,VALID,0.233594,
2009-07-25, 01:41:04,VALID,1010.88,VALID,0,VALID,92.7139,VALID,0,VALID,24.2183,VALID,56,VALID,0.18125,
2009-07-25, 01:42:04,VALID,1010.86,VALID,0,VALID,92.7215,VALID,0,VALID,24.2396,VALID,56,VALID,0.233984,
2009-07-25, 01:43:04,VALID,1010.84,VALID,0,VALID,92.7368,VALID,0,VALID,24.2183,VALID,56,VALID,0.408203,
2009-07-25, 01:44:04,VALID,1010.83,VALID,0,VALID,92.752,VALID,0,VALID,24.2396,VALID,56,VALID,0.31875,
2009-07-25, 01:45:04,VALID,1010.78,VALID,0,VALID,92.7749,VALID,0.105969,VALID,24.1988,VALID,56,VALID,0.193359,
2009-07-25, 01:46:04,VALID,1010.79,VALID,0,VALID,92.7673,VALID,0,VALID,24.2202,VALID,56,VALID,0.357422,
2009-07-25, 01:47:04,VALID,1010.78,VALID,0,VALID,92.7673,VALID,0,VALID,24.1988,VALID,56,VALID,0.0710938,
2009-07-25, 01:48:04,VALID,1010.79,VALID,0,VALID,92.7597,VALID,0,VALID,24.1793,VALID,56,VALID,0,
2009-07-25, 01:49:04,VALID,1010.75,VALID,0,VALID,92.7749,VALID,0,VALID,24.1617,VALID,56,VALID,0,
2009-07-25, 01:50:04,VALID,1010.77,VALID,0,VALID,92.7673,VALID,0,VALID,24.1209,VALID,56,VALID,0,
2009-07-25, 01:51:04,VALID,1010.76,VALID,0,VALID,92.7749,VALID,0,VALID,24.1209,VALID,56,VALID,0,
2009-07-25, 01:52:04,VALID,1010.75,VALID,0,VALID,92.7902,VALID,0,VALID,24.1227,VALID,56,VALID,0,
2009-07-25, 01:53:04,VALID,1010.74,VALID,0,VALID,92.8054,VALID,0,VALID,24.1014,VALID,56,VALID,0,
2009-07-25, 01:54:04,VALID,1010.77,VALID,0,VALID,92.813,VALID,0,VALID,24.0819,VALID,56,VALID,0,
2009-07-25, 01:55:04,VALID,1010.74,VALID,0,VALID,92.8283,VALID,0,VALID,24.0819,VALID,56,VALID,0,
2009-07-25, 01:56:04,VALID,1010.72,VALID,0,VALID,92.8283,VALID,0,VALID,24.0643,VALID,56,VALID,0,
2009-07-25, 01:57:04,VALID,1010.72,VALID,0,VALID,92.8512,VALID,0,VALID,24.0235,VALID,56,VALID,0,
2009-07-25, 01:58:04,VALID,1010.7,VALID,0,VALID,92.8512,VALID,0,VALID,24.0448,VALID,56,VALID,0,
2009-07-25, 01:59:04,VALID,1010.74,VALID,0,VALID,92.8664,VALID,0,VALID,24.0235,VALID,56,VALID,0,
2009-07-25, 02:00:04,VALID,1010.71,VALID,0,VALID,92.8817,VALID,0,VALID,24.0448,VALID,56,VALID,0.204688,
2009-07-25, 02:01:04,VALID,1010.7,VALID,0,VALID,92.9046,VALID,0,VALID,24.0253,VALID,56,VALID,0.021875,
2009-07-25, 02:02:04,VALID,1010.71,VALID,0,VALID,92.9198,VALID,0.105969,VALID,24.0253,VALID,56,VALID,0,
2009-07-25, 02:03:04,VALID,1010.7,VALID,0,VALID,92.9274,VALID,0,VALID,24.004,VALID,56,VALID,0,
2009-07-25, 02:04:04,VALID,1010.7,VALID,0,VALID,92.9427,VALID,0,VALID,24.0253,VALID,56,VALID,0.402344,
2009-07-25, 02:05:04,VALID,1010.68,VALID,0,VALID,92.9427,VALID,0,VALID,24.0235,VALID,56,VALID,0.395703,
2009-07-25, 02:06:04,VALID,1010.67,VALID,0,VALID,92.9808,VALID,0,VALID,24.0253,VALID,56,VALID,0.356641,
2009-07-25, 02:07:04,VALID,1010.68,VALID,0,VALID,92.9884,VALID,0,VALID,24.004,VALID,56,VALID,0.232422,
2009-07-25, 02:08:04,VALID,1010.67,VALID,0,VALID,93.0037,VALID,0,VALID,23.9845,VALID,63,VALID,0,
2009-07-25, 02:09:04,VALID,1010.65,VALID,0,VALID,93.0113,VALID,0,VALID,24.0058,VALID,63,VALID,0,
2009-07-25, 02:10:04,VALID,1010.64,VALID,0,VALID,93.0266,VALID,0,VALID,23.9668,VALID,65,VALID,0,
2009-07-25, 02:11:04,VALID,1010.64,VALID,0,VALID,93.0189,VALID,0,VALID,23.9455,VALID,73,VALID,0,
2009-07-25, 02:12:04,VALID,1010.59,VALID,0,VALID,93.0189,VALID,0,VALID,23.9455,VALID,89,VALID,0.639063,
2009-07-25, 02:13:04,VALID,1010.59,VALID,0,VALID,93.0342,VALID,0,VALID,23.926,VALID,100,VALID,0.805859,
2009-07-25, 02:14:04,VALID,1010.59,VALID,0,VALID,93.0418,VALID,0,VALID,23.9065,VALID,91,VALID,0.502734,
2009-07-25, 02:15:04,VALID,1010.59,VALID,0,VALID,93.0418,VALID,0,VALID,23.926,VALID,91,VALID,0.586328,
2009-07-25, 02:16:04,VALID,1010.59,VALID,0,VALID,93.0494,VALID,0,VALID,23.926,VALID,91,VALID,0.428906,
2009-07-25, 02:17:04,VALID,1010.62,VALID,0,VALID,93.0723,VALID,0,VALID,23.9065,VALID,91,VALID,0.315234,
2009-07-25, 02:18:04,VALID,1010.61,VALID,0,VALID,93.0266,VALID,0,VALID,23.9278,VALID,91,VALID,0.219531,
2009-07-25, 02:19:04,VALID,1010.57,VALID,0,VALID,93.0494,VALID,0,VALID,23.8871,VALID,85,VALID,0.35625,
2009-07-25, 02:20:04,VALID,1010.6,VALID,0,VALID,93.0418,VALID,0,VALID,23.9065,VALID,85,VALID,0.169141,
2009-07-25, 02:21:04,VALID,1010.6,VALID,0,VALID,93.0571,VALID,0,VALID,23.9065,VALID,85,VALID,0.112109,
2009-07-25, 02:22:04,VALID,1010.61,VALID,0,VALID,93.0647,VALID,0,VALID,23.9278,VALID,85,VALID,0,
2009-07-25, 02:23:04,VALID,1010.61,VALID,0,VALID,93.0723,VALID,0,VALID,23.9278,VALID,85,VALID,0.125781,
2009-07-25, 02:24:04,VALID,1010.61,VALID,0,VALID,93.0799,VALID,0,VALID,23.9278,VALID,85,VALID,0.0359375,
2009-07-25, 02:25:04,VALID,1010.6,VALID,0,VALID,93.0799,VALID,0,VALID,23.9065,VALID,85,VALID,0.0890625,
2009-07-25, 02:26:04,VALID,1010.64,VALID,0,VALID,93.0799,VALID,0,VALID,23.9065,VALID,85,VALID,0.0808594,
2009-07-25, 02:27:04,VALID,1010.62,VALID,0,VALID,93.1028,VALID,0,VALID,23.9065,VALID,85,VALID,0.187891,
2009-07-25, 02:28:04,VALID,1010.64,VALID,0,VALID,93.0952,VALID,0,VALID,23.8871,VALID,85,VALID,0.185156,
2009-07-25, 02:29:04,VALID,1010.64,VALID,0,VALID,93.0876,VALID,0.105969,VALID,23.8889,VALID,85,VALID,0.103125,
2009-07-25, 02:30:04,VALID,1010.64,VALID,0,VALID,93.0799,VALID,0.105969,VALID,23.9084,VALID,85,VALID,0,
2009-07-25, 02:31:04,VALID,1010.65,VALID,0,VALID,93.0723,VALID,0,VALID,23.8286,VALID,85,VALID,0,
2009-07-25, 02:32:04,VALID,1010.66,VALID,0,VALID,93.0571,VALID,0,VALID,23.8286,VALID,85,VALID,0,
2009-07-25, 02:33:04,VALID,1010.66,VALID,0,VALID,93.0571,VALID,0.105969,VALID,23.8286,VALID,85,VALID,0,
2009-07-25, 02:34:04,VALID,1010.65,VALID,0,VALID,93.0647,VALID,0,VALID,23.8304,VALID,85,VALID,0,
2009-07-25, 02:35:04,VALID,1010.66,VALID,0,VALID,93.0723,VALID,0.105969,VALID,23.8091,VALID,85,VALID,0,
2009-07-25, 02:36:04,VALID,1010.65,VALID,0,VALID,93.0876,VALID,0.105969,VALID,23.8091,VALID,85,VALID,0,
2009-07-25, 02:37:04,VALID,1010.61,VALID,0,VALID,93.0723,VALID,0,VALID,23.8109,VALID,85,VALID,0,
2009-07-25, 02:38:04,VALID,1010.61,VALID,0,VALID,93.0876,VALID,0,VALID,23.7914,VALID,85,VALID,0,
2009-07-25, 02:39:04,VALID,1010.59,VALID,0,VALID,93.0799,VALID,0,VALID,23.7507,VALID,85,VALID,0,
2009-07-25, 02:40:04,VALID,1010.57,VALID,0,VALID,93.0876,VALID,0.105969,VALID,23.7507,VALID,85,VALID,0,
2009-07-25, 02:41:04,VALID,1010.56,VALID,0,VALID,93.0647,VALID,0,VALID,23.7312,VALID,85,VALID,0,
2009-07-25, 02:42:04,VALID,1010.55,VALID,0,VALID,93.0952,VALID,0.105969,VALID,23.7312,VALID,85,VALID,0,
2009-07-25, 02:43:04,VALID,1010.52,VALID,0,VALID,93.1105,VALID,0,VALID,23.7117,VALID,85,VALID,0,
2009-07-25, 02:44:04,VALID,1010.55,VALID,0,VALID,93.1105,VALID,0,VALID,23.7312,VALID,85,VALID,0.0855469,
2009-07-25, 02:45:04,VALID,1010.54,VALID,0,VALID,93.1486,VALID,0.105969,VALID,23.7507,VALID,85,VALID,0,
2009-07-25, 02:46:04,VALID,1010.53,VALID,0,VALID,93.1638,VALID,0,VALID,23.7701,VALID,85,VALID,0,
2009-07-25, 02:47:04,VALID,1010.52,VALID,0,VALID,93.1638,VALID,0,VALID,23.7701,VALID,85,VALID,0,
2009-07-25, 02:48:04,VALID,1010.52,VALID,0,VALID,93.1791,VALID,0,VALID,23.7896,VALID,85,VALID,0,
2009-07-25, 02:49:04,VALID,1010.49,VALID,0,VALID,93.1791,VALID,0,VALID,23.7701,VALID,85,VALID,0,
2009-07-25, 02:50:04,VALID,1010.5,VALID,0,VALID,93.1486,VALID,0,VALID,23.733,VALID,85,VALID,0,
2009-07-25, 02:51:04,VALID,1010.47,VALID,0,VALID,93.1562,VALID,0,VALID,23.6745,VALID,85,VALID,0,
2009-07-25, 02:52:04,VALID,1010.49,VALID,0,VALID,93.1105,VALID,0,VALID,23.6161,VALID,85,VALID,0,
2009-07-25, 02:53:04,VALID,1010.48,VALID,0,VALID,93.1105,VALID,0,VALID,23.5966,VALID,85,VALID,0,
2009-07-25, 02:54:04,VALID,1010.48,VALID,0,VALID,93.0799,VALID,0,VALID,23.6161,VALID,85,VALID,0,
2009-07-25, 02:55:04,VALID,1010.49,VALID,0,VALID,93.1105,VALID,0,VALID,23.5966,VALID,85,VALID,0,
2009-07-25, 02:56:04,VALID,1010.48,VALID,0,VALID,93.0952,VALID,0,VALID,23.5363,VALID,85,VALID,0,
2009-07-25, 02:57:04,VALID,1010.51,VALID,0,VALID,93.1257,VALID,0,VALID,23.5169,VALID,85,VALID,0,
2009-07-25, 02:58:04,VALID,1010.48,VALID,0,VALID,93.1181,VALID,0,VALID,23.4974,VALID,85,VALID,0,
2009-07-25, 02:59:04,VALID,1010.45,VALID,0,VALID,93.1028,VALID,0.105969,VALID,23.4584,VALID,85,VALID,0,
2009-07-25, 03:00:04,VALID,1010.47,VALID,0,VALID,93.0952,VALID,0,VALID,23.4602,VALID,85,VALID,0,
2009-07-25, 03:01:04,VALID,1010.47,VALID,0,VALID,93.1333,VALID,0,VALID,23.4,VALID,85,VALID,0,
2009-07-25, 03:02:04,VALID,1010.45,VALID,0,VALID,93.1257,VALID,0,VALID,23.3805,VALID,85,VALID,0,
2009-07-25, 03:03:04,VALID,1010.43,VALID,0,VALID,93.1105,VALID,0,VALID,23.3628,VALID,85,VALID,0,
2009-07-25, 03:04:04,VALID,1010.43,VALID,0,VALID,93.1333,VALID,0,VALID,23.322,VALID,85,VALID,0,
2009-07-25, 03:05:04,VALID,1010.41,VALID,0,VALID,93.1105,VALID,0,VALID,23.2636,VALID,85,VALID,0,
2009-07-25, 03:06:04,VALID,1010.43,VALID,0,VALID,93.1257,VALID,0,VALID,23.2848,VALID,85,VALID,0,
2009-07-25, 03:07:04,VALID,1010.4,VALID,0,VALID,93.1486,VALID,0,VALID,23.3238,VALID,85,VALID,0,
2009-07-25, 03:08:04,VALID,1010.42,VALID,0,VALID,93.1715,VALID,0,VALID,23.3415,VALID,85,VALID,0,
2009-07-25, 03:09:04,VALID,1010.4,VALID,0,VALID,93.1943,VALID,0,VALID,23.3415,VALID,85,VALID,0,
2009-07-25, 03:10:04,VALID,1010.4,VALID,0,VALID,93.2096,VALID,0,VALID,23.3805,VALID,85,VALID,0,
2009-07-25, 03:11:04,VALID,1010.41,VALID,0,VALID,93.2325,VALID,0,VALID,23.4,VALID,85,VALID,0,
2009-07-25, 03:12:04,VALID,1010.4,VALID,0,VALID,93.263,VALID,0.105969,VALID,23.4,VALID,85,VALID,0,
2009-07-25, 03:13:04,VALID,1010.39,VALID,0,VALID,93.263,VALID,0.105969,VALID,23.4,VALID,85,VALID,0,
2009-07-25, 03:14:04,VALID,1010.37,VALID,0,VALID,93.2935,VALID,0,VALID,23.4,VALID,85,VALID,0,
2009-07-25, 03:15:05,VALID,1010.38,VALID,0,VALID,93.2935,VALID,0.105969,VALID,23.4194,VALID,85,VALID,0,
2009-07-25, 03:16:05,VALID,1010.35,VALID,0,VALID,93.3163,VALID,0,VALID,23.4212,VALID,85,VALID,0,
2009-07-25, 03:17:05,VALID,1010.35,VALID,0,VALID,93.3163,VALID,0,VALID,23.4212,VALID,85,VALID,0,
2009-07-25, 03:18:05,VALID,1010.31,VALID,0,VALID,93.3316,VALID,0,VALID,23.4,VALID,85,VALID,0,
2009-07-25, 03:19:05,VALID,1010.31,VALID,0,VALID,93.324,VALID,0,VALID,23.4194,VALID,85,VALID,0,
2009-07-25, 03:20:05,VALID,1010.27,VALID,0,VALID,93.3316,VALID,0,VALID,23.4602,VALID,85,VALID,0,
2009-07-25, 03:21:05,VALID,1010.29,VALID,0,VALID,93.3545,VALID,0,VALID,23.4584,VALID,85,VALID,0,
2009-07-25, 03:22:05,VALID,1010.29,VALID,0,VALID,93.3697,VALID,0,VALID,23.4797,VALID,85,VALID,0,
2009-07-25, 03:23:05,VALID,1010.26,VALID,0,VALID,93.3697,VALID,0.105969,VALID,23.4974,VALID,85,VALID,0,
2009-07-25, 03:24:05,VALID,1010.26,VALID,0,VALID,93.3621,VALID,0,VALID,23.4974,VALID,85,VALID,0,
2009-07-25, 03:25:05,VALID,1010.24,VALID,0,VALID,93.385,VALID,0,VALID,23.4992,VALID,85,VALID,0,
2009-07-25, 03:26:05,VALID,1010.26,VALID,0,VALID,93.4002,VALID,0,VALID,23.4992,VALID,85,VALID,0,
2009-07-25, 03:27:05,VALID,1010.24,VALID,0,VALID,93.3926,VALID,0,VALID,23.4992,VALID,85,VALID,0,
2009-07-25, 03:28:05,VALID,1010.24,VALID,0,VALID,93.4079,VALID,0,VALID,23.4992,VALID,85,VALID,0,
2009-07-25, 03:29:05,VALID,1010.24,VALID,0,VALID,93.4307,VALID,0,VALID,23.4584,VALID,346,VALID,0,
2009-07-25, 03:30:05,VALID,1010.22,VALID,0,VALID,93.4307,VALID,0,VALID,23.4797,VALID,346,VALID,0,
2009-07-25, 03:31:05,VALID,1010.22,VALID,0,VALID,93.4384,VALID,0,VALID,23.4389,VALID,346,VALID,0,
2009-07-25, 03:32:05,VALID,1010.22,VALID,0,VALID,93.4231,VALID,0.105969,VALID,23.4407,VALID,346,VALID,0,
2009-07-25, 03:33:05,VALID,1010.2,VALID,0,VALID,93.4384,VALID,0,VALID,23.4389,VALID,346,VALID,0,
2009-07-25, 03:34:05,VALID,1010.23,VALID,0,VALID,93.4231,VALID,0,VALID,23.4194,VALID,346,VALID,0,
2009-07-25, 03:35:05,VALID,1010.22,VALID,0,VALID,93.446,VALID,0.105969,VALID,23.4194,VALID,346,VALID,0,
2009-07-25, 03:36:05,VALID,1010.22,VALID,0,VALID,93.4384,VALID,0,VALID,23.4194,VALID,346,VALID,0,
2009-07-25, 03:37:05,VALID,1010.23,VALID,0,VALID,93.446,VALID,0,VALID,23.4389,VALID,346,VALID,0,
2009-07-25, 03:38:05,VALID,1010.24,VALID,0,VALID,93.4612,VALID,0,VALID,23.4602,VALID,346,VALID,0,
2009-07-25, 03:39:05,VALID,1010.23,VALID,0,VALID,93.4765,VALID,0,VALID,23.4389,VALID,346,VALID,0,
2009-07-25, 03:40:05,VALID,1010.22,VALID,0,VALID,93.4765,VALID,0.105969,VALID,23.4,VALID,346,VALID,0,
2009-07-25, 03:41:05,VALID,1010.24,VALID,0,VALID,93.4612,VALID,0,VALID,23.3805,VALID,346,VALID,0,
2009-07-25, 03:42:05,VALID,1010.27,VALID,0,VALID,93.4689,VALID,0,VALID,23.361,VALID,346,VALID,0,
2009-07-25, 03:43:05,VALID,1010.27,VALID,0,VALID,93.4612,VALID,0,VALID,23.361,VALID,346,VALID,0,
2009-07-25, 03:44:05,VALID,1010.29,VALID,0,VALID,93.4612,VALID,0,VALID,23.3415,VALID,346,VALID,0,
2009-07-25, 03:45:05,VALID,1010.27,VALID,0,VALID,93.4689,VALID,0,VALID,23.3433,VALID,346,VALID,0,
2009-07-25, 03:46:05,VALID,1010.31,VALID,0,VALID,93.4536,VALID,0,VALID,23.3026,VALID,346,VALID,0,
2009-07-25, 03:47:05,VALID,1010.3,VALID,0,VALID,93.4765,VALID,0,VALID,23.3433,VALID,346,VALID,0,
2009-07-25, 03:48:05,VALID,1010.29,VALID,0,VALID,93.4536,VALID,0,VALID,23.3238,VALID,346,VALID,0,
2009-07-25, 03:49:05,VALID,1010.28,VALID,0,VALID,93.4536,VALID,0,VALID,23.3238,VALID,346,VALID,0,
2009-07-25, 03:50:05,VALID,1010.28,VALID,0,VALID,93.4536,VALID,0,VALID,23.3026,VALID,346,VALID,0,
2009-07-25, 03:51:05,VALID,1010.29,VALID,0,VALID,93.446,VALID,0,VALID,23.3238,VALID,346,VALID,0,
2009-07-25, 03:52:05,VALID,1010.28,VALID,0,VALID,93.4612,VALID,0,VALID,23.322,VALID,346,VALID,0,
2009-07-25, 03:53:05,VALID,1010.29,VALID,0,VALID,93.4689,VALID,0,VALID,23.322,VALID,346,VALID,0,